Location: ShareBrained
(45.5589°N, 122.6491°W)
Time: 08:29:39
(UTC-08:00)

NOAA 19 - Pass Details

Date: 20 January 2020
Orbit: 840 x 861 km, 99.2° (Epoch: 25 February)

Event Time Altitude Azimuth Distance (km) Brightness Sun altitude
Rises 05:33:31 0° 20° (NNE) 3,410 8.5 -22.5°
Reaches altitude 10° 05:36:01 10° 27° (NNE) 2,469 7.9 -22.1°
Maximum altitude 05:41:14 44° 99° (E) 1,147 6.3 -21.2°
Drops below altitude 10° 05:46:24 10° 171° (S) 2,451 7.8 -20.3°
Sets 05:48:52 0° 178° (S) 3,383 8.5 -19.8°
